Location: Birkenwerder
(52.6919°N, 13.2774°E)
Time: 00:17:53
(UTC+00:00)

Cosmos 1570 Rocket - Pass Details

Date: 04 October 2020
Orbit: 763 x 788 km, 74.1° (Epoch: 24 October)

Event Time Altitude Azimuth Distance (km) Brightness Sun altitude
Exits shadow 02:16:41 64° 323° (NW) 878 4.1 -26.6°
Drops below altitude 10° 02:21:41 10° 22° (NNE) 2,364 7.2 -26.0°
Sets 02:24:07 0° 25° (NNE) 3,297 8.1 -25.7°
